Location: *
(45.1961°N, 1.9694°E)
Time: 07:40:29
(UTC+00:00)

Cosmos 44 Rocket - Pass Details

Date: 25 August 2019
Orbit: 653 x 737 km, 65.1° (Epoch: 20 September)

Event Time Altitude Azimuth Distance (km) Brightness Sun altitude
Rises 19:21:14 0° 324° (NW) 3,046 7.7 -7.2°
Reaches altitude 10° 19:23:35 10° 325° (NW) 2,114 6.8 -7.6°
Maximum altitude 19:28:23 89° 56° (NE) 670 3.2 -8.4°
Drops below altitude 10° 19:33:04 10° 146° (SE) 2,064 5.2 -9.1°
Enters shadow 19:33:32 - 146° (SE) 2,245 5.4 -9.2°
